When you browse on this site, cookies collect data to enhance your experience and personalize the content and advertising you see.
Visit our Privacy Policy to learn more. By continuing to use the site, you agree to this use of cookies and data.
  • In United Kingdom
  • List of Countries
  • For 7 days
  • Water Temperature
  • Weather Map
  • Weather Widgets
  • user-avatar
    Login

    Hourly Weather Lankaran

    Today, 16 September, Monday

    Time Temperature Precipitation Wind Pressure Humidity
    00:00 +13°C° 0 mm 1 mps 636 mmHg 87%
    01:00 +12°C° 0 mm 1 mps 636 mmHg 87%
    02:00 +12°C° 0 mm 1 mps 636 mmHg 86%
    03:00 +11°C° 0 mm 0 mps 636 mmHg 87%
    04:00 +12°C° 0.1 mm 1 mps 636 mmHg 86%
    05:00 +12°C° 0.1 mm 1 mps 637 mmHg 86%
    06:00 +12°C° 0.1 mm 1 mps 637 mmHg 86%
    07:00 +13°C° 0 mm 2 mps 637 mmHg 81%
    08:00 +15°C° 0 mm 2 mps 637 mmHg 76%
    09:00 +16°C° 0 mm 3 mps 638 mmHg 73%
    10:00 +17°C° 0 mm 3 mps 638 mmHg 71%
    11:00 +18°C° 0 mm 3 mps 637 mmHg 70%
    12:00 +18°C° 0 mm 3 mps 637 mmHg 68%
    13:00 +18°C° 0 mm 3 mps 636 mmHg 68%
    14:00 +19°C° 0 mm 3 mps 636 mmHg 68%
    15:00 +19°C° 0 mm 3 mps 635 mmHg 68%
    16:00 +18°C° 0 mm 3 mps 634 mmHg 74%
    17:00 +16°C° 0 mm 2 mps 634 mmHg 80%
    18:00 +15°C° 0 mm 1 mps 633 mmHg 86%
    19:00 +15°C° 0 mm 1 mps 633 mmHg 85%
    20:00 +14°C° 0 mm 1 mps 633 mmHg 85%
    21:00 +14°C° 0 mm 1 mps 634 mmHg 85%
    22:00 +14°C° 0 mm 1 mps 633 mmHg 83%
    23:00 +14°C° 0 mm 1 mps 633 mmHg 81%

    Tomorrow, 17 September, Tuesday

    Time Temperature Precipitation Wind Pressure Humidity
    00:00 +14°C° 0 mm 1 mps 633 mmHg 79%
    01:00 +14°C° 0 mm 1 mps 633 mmHg 74%
    02:00 +14°C° 0 mm 1 mps 633 mmHg 70%
    03:00 +14°C° 0 mm 1 mps 633 mmHg 66%
    04:00 +14°C° 0 mm 1 mps 633 mmHg 62%
    05:00 +14°C° 0 mm 1 mps 633 mmHg 59%
    06:00 +14°C° 0 mm 1 mps 633 mmHg 56%
    07:00 +17°C° 0 mm 2 mps 634 mmHg 49%
    08:00 +19°C° 0 mm 2 mps 635 mmHg 42%
    09:00 +23°C° 0 mm 2 mps 636 mmHg 35%
    10:00 +25°C° 0 mm 3 mps 636 mmHg 32%
    11:00 +26°C° 0 mm 3 mps 636 mmHg 29%
    12:00 +27°C° 0 mm 3 mps 636 mmHg 26%
    13:00 +28°C° 0 mm 4 mps 635 mmHg 26%
    14:00 +28°C° 0 mm 4 mps 635 mmHg 27%
    15:00 +28°C° 0 mm 5 mps 635 mmHg 28%
    16:00 +26°C° 0 mm 4 mps 634 mmHg 32%
    17:00 +24°C° 0 mm 3 mps 633 mmHg 37%
    18:00 +21°C° 0 mm 2 mps 632 mmHg 41%
    19:00 +21°C° 0 mm 2 mps 633 mmHg 40%
    20:00 +20°C° 0 mm 2 mps 633 mmHg 39%
    21:00 +20°C° 0 mm 2 mps 633 mmHg 38%
    22:00 +19°C° 0 mm 2 mps 633 mmHg 42%
    23:00 +18°C° 0 mm 2 mps 633 mmHg 46%

    Day after tomorrow, 18 September, Wednesday

    Time Temperature Precipitation Wind Pressure Humidity
    00:00 +17°C° 0 mm 2 mps 633 mmHg 50%
    01:00 +16°C° 0 mm 2 mps 633 mmHg 56%
    02:00 +15°C° 0 mm 2 mps 633 mmHg 62%
    03:00 +14°C° 0 mm 2 mps 633 mmHg 68%
    04:00 +14°C° 0 mm 1 mps 633 mmHg 69%
    05:00 +14°C° 0 mm 1 mps 633 mmHg 70%
    06:00 +14°C° 0 mm 1 mps 634 mmHg 70%
    07:00 +16°C° 0 mm 1 mps 635 mmHg 64%
    08:00 +19°C° 0 mm 1 mps 636 mmHg 58%
    09:00 +20°C° 0 mm 2 mps 637 mmHg 51%
    10:00 +20°C° 0 mm 2 mps 637 mmHg 49%
    11:00 +21°C° 0 mm 3 mps 637 mmHg 47%
    12:00 +22°C° 0 mm 3 mps 637 mmHg 45%
    13:00 +22°C° 0 mm 4 mps 637 mmHg 46%
    14:00 +21°C° 0 mm 4 mps 636 mmHg 48%
    15:00 +21°C° 0 mm 4 mps 636 mmHg 49%
    16:00 +19°C° 0 mm 3 mps 635 mmHg 55%
    17:00 +18°C° 0 mm 2 mps 635 mmHg 61%
    18:00 +16°C° 0 mm 2 mps 634 mmHg 68%
    19:00 +16°C° 0 mm 1 mps 635 mmHg 67%
    20:00 +15°C° 0 mm 1 mps 635 mmHg 66%
    21:00 +15°C° 0 mm 1 mps 635 mmHg 66%
    22:00 +15°C° 0 mm 1 mps 635 mmHg 66%
    23:00 +15°C° 0 mm 1 mps 634 mmHg 65%

    19 September, Thursday

    Time Temperature Precipitation Wind Pressure Humidity
    00:00 +15°C° 0 mm 1 mps 634 mmHg 65%
    01:00 +15°C° 0 mm 1 mps 634 mmHg 65%
    02:00 +15°C° 0 mm 1 mps 633 mmHg 65%
    03:00 +15°C° 0 mm 1 mps 633 mmHg 65%
    04:00 +15°C° 0 mm 1 mps 633 mmHg 64%
    05:00 +15°C° 0 mm 1 mps 633 mmHg 63%
    06:00 +15°C° 0 mm 1 mps 633 mmHg 63%
    07:00 +18°C° 0 mm 1 mps 634 mmHg 55%
    08:00 +20°C° 0 mm 1 mps 636 mmHg 48%
    09:00 +23°C° 0 mm 1 mps 637 mmHg 40%
    10:00 +23°C° 0 mm 2 mps 637 mmHg 40%
    11:00 +24°C° 0 mm 2 mps 637 mmHg 39%
    12:00 +25°C° 0 mm 3 mps 637 mmHg 39%
    13:00 +25°C° 0 mm 3 mps 637 mmHg 42%
    14:00 +23°C° 0 mm 4 mps 637 mmHg 45%
    15:00 +22°C° 0 mm 4 mps 636 mmHg 48%
    16:00 +20°C° 0 mm 4 mps 636 mmHg 60%
    17:00 +17°C° 0 mm 3 mps 635 mmHg 72%
    18:00 +14°C° 0 mm 3 mps 635 mmHg 84%
    19:00 +14°C° 0 mm 2 mps 635 mmHg 85%
    20:00 +14°C° 0 mm 2 mps 635 mmHg 86%
    21:00 +13°C° 0 mm 1 mps 635 mmHg 87%
    22:00 +13°C° 0 mm 1 mps 635 mmHg 86%
    23:00 +13°C° 0 mm 1 mps 635 mmHg 85%

    20 September, Friday

    Time Temperature Precipitation Wind Pressure Humidity
    00:00 +12°C° 0 mm 1 mps 635 mmHg 84%
    01:00 +12°C° 0 mm 1 mps 634 mmHg 85%
    02:00 +12°C° 0 mm 1 mps 634 mmHg 86%
    03:00 +11°C° 0 mm 0 mps 634 mmHg 87%
    04:00 +11°C° 0 mm 0 mps 634 mmHg 88%
    05:00 +12°C° 0 mm 1 mps 634 mmHg 88%
    06:00 +12°C° 0 mm 1 mps 633 mmHg 89%
    07:00 +13°C° 0 mm 1 mps 634 mmHg 82%
    08:00 +15°C° 0 mm 1 mps 634 mmHg 76%
    09:00 +16°C° 0 mm 2 mps 635 mmHg 70%
    10:00 +17°C° 0 mm 2 mps 635 mmHg 66%
    11:00 +18°C° 0 mm 2 mps 634 mmHg 63%
    12:00 +19°C° 0 mm 2 mps 634 mmHg 59%
    13:00 +20°C° 0 mm 2 mps 634 mmHg 57%
    14:00 +21°C° 0 mm 2 mps 633 mmHg 54%
    15:00 +21°C° 0 mm 2 mps 633 mmHg 52%
    16:00 +20°C° 0 mm 2 mps 632 mmHg 57%
    17:00 +19°C° 0 mm 1 mps 632 mmHg 62%
    18:00 +18°C° 0 mm 1 mps 631 mmHg 67%
    19:00 +18°C° 0 mm 1 mps 631 mmHg 64%
    20:00 +16°C° 0 mm 1 mps 631 mmHg 61%
    21:00 +15°C° 0 mm 0 mps 632 mmHg 58%
    22:00 +16°C° 0 mm 1 mps 631 mmHg 56%
    23:00 +16°C° 0 mm 1 mps 631 mmHg 53%

    21 September, Saturday

    Time Temperature Precipitation Wind Pressure Humidity
    00:00 +16°C° 0 mm 1 mps 631 mmHg 51%
    01:00 +16°C° 0 mm 1 mps 631 mmHg 51%
    02:00 +16°C° 0 mm 1 mps 631 mmHg 51%
    03:00 +15°C° 0 mm 1 mps 630 mmHg 50%
    04:00 +15°C° 0 mm 1 mps 631 mmHg 49%
    05:00 +15°C° 0 mm 1 mps 631 mmHg 49%
    06:00 +15°C° 0 mm 1 mps 631 mmHg 48%
    07:00 +18°C° 0 mm 2 mps 632 mmHg 45%
    08:00 +20°C° 0 mm 2 mps 633 mmHg 42%
    09:00 +24°C° 0 mm 3 mps 634 mmHg 39%
    10:00 +25°C° 0 mm 3 mps 634 mmHg 38%
    11:00 +26°C° 0 mm 4 mps 634 mmHg 37%
    12:00 +27°C° 0 mm 5 mps 633 mmHg 36%
    13:00 +25°C° 0 mm 4 mps 632 mmHg 46%
    14:00 +21°C° 0 mm 4 mps 631 mmHg 56%
    15:00 +19°C° 0 mm 4 mps 630 mmHg 66%
    16:00 +18°C° 0 mm 4 mps 630 mmHg 73%
    17:00 +16°C° 0 mm 3 mps 630 mmHg 79%
    18:00 +13°C° 0 mm 3 mps 629 mmHg 86%
    19:00 +13°C° 0 mm 3 mps 630 mmHg 87%
    20:00 +13°C° 0 mm 3 mps 630 mmHg 88%
    21:00 +12°C° 0 mm 3 mps 630 mmHg 89%
    22:00 +13°C° 0 mm 2 mps 631 mmHg 90%
    23:00 +12°C° 0 mm 2 mps 631 mmHg 90%
    Show more